Location: Washington
(38.8950°N, 77.0370°W)
Time: 02:08:27
(UTC-05:00)

IDEFIX/ARIANE 42P - Visible Passes

Search period start: 01 February 2015 00:00
Search period end: 11 February 2015 00:00
Orbit: 786 x 802 km, 98.3° (Epoch: 30 January)

Date Brightness Start Highest point End Pass type
(mag) Time Alt. Az. Time Alt. Az. Time Alt. Az.
01 Feb 4.3 17:53:29 10° E 17:55:22 12° ENE 17:57:33 10° NE visible
01 Feb 2.5 19:29:07 10° SSE 19:34:21 84° WSW 19:39:39 10° NNW visible
02 Feb 2.6 19:01:09 10° SSE 19:06:12 53° ENE 19:11:21 10° N visible
02 Feb 5.1 20:42:43 10° SW 20:46:14 17° W 20:49:34 10° NW visible
03 Feb 3.3 18:33:44 10° SE 18:38:10 30° ENE 18:42:43 10° N visible
03 Feb 4.2 20:13:03 10° SSW 20:17:44 32° W 20:22:23 10° NNW visible
04 Feb 4.0 18:07:02 10° ESE 18:10:12 17° ENE 18:13:37 10° NNE visible
04 Feb 3.0 19:44:14 10° S 19:49:23 60° W 19:54:36 10° NNW visible
05 Feb 2.4 19:15:59 10° SSE 19:21:11 75° ENE 19:26:28 10° N visible
05 Feb 5.5 20:59:21 10° WSW 21:01:30 12° W 21:03:19 10° WNW visible
06 Feb 2.9 18:48:15 10° SE 18:53:05 41° ENE 18:58:01 10° N visible
06 Feb 4.7 20:28:44 10° SW 20:32:54 23° W 20:36:58 10° NW visible
07 Feb 3.6 18:21:05 10° ESE 18:25:05 23° ENE 18:29:13 10° NNE visible
07 Feb 3.7 19:59:30 10° S 20:04:28 42° W 20:09:27 10° NNW visible
08 Feb 2.6 19:30:57 10° S 19:36:12 79° W 19:41:29 10° NNW visible
09 Feb 2.6 19:02:55 10° SSE 19:08:02 57° ENE 19:13:13 10° N visible
09 Feb 5.2 20:44:46 10° SW 20:48:07 16° W 20:51:15 10° NW visible
10 Feb 3.3 18:35:26 10° SE 18:39:58 31° ENE 18:44:37 10° N visible
10 Feb 4.3 20:14:58 10° SSW 20:19:35 30° W 20:24:10 10° NW visible
